Location: Helsinki
(60.1699°N, 24.9384°E)
Time: 23:57:38
(UTC+02:00)

A-11 Canister half - Pass Details

Date: 31 October 2020
Orbit: 1516 x 1684 km, 47.2° (Epoch: 26 November)

Event Time Altitude Azimuth Distance (km) Brightness Sun altitude
Rises 23:35:24 0° 263° (W) 4,920 11.7 -44.0°
Enters shadow 23:37:34 - 258° (WSW) 4,290 11.3 -44.1°
Reaches altitude 10° 23:38:54 10° 255° (WSW) 3,916 - -44.1°
Maximum altitude 23:47:38 36° 194° (SSW) 2,370 - -44.2°
Drops below altitude 10° 23:56:08 10° 133° (SE) 3,800 - -44.3°
Sets 23:59:28 0° 125° (SE) 4,760 - -44.3°
